Alturas, CA

12:22 AM PST on November 12, 2019 (GMT -0800)
Alturas Municipal

Weather History for KAAT - October, 2019

Change the Weather History Date:

Tuesday, October 22, 2019

  Actual Average Record
Temperature  
Mean Temperature 46 °F 45 °F  
Max Temperature 66 °F 62 °F 82 °F (1960)
Min Temperature 26 °F 27 °F 15 °F (1906)
Degree Days  
Heating Degree Days 18 20  
Month to date heating degree days 457 368  
Since 1 July heating degree days 763 745  
Cooling Degree Days 0 0  
Month to date cooling degree days 0 0  
Year to date cooling degree days 217 156  
Moisture  
Dew Point 35 °F    
Average Humidity 73    
Maximum Humidity 100    
Minimum Humidity 40    
Precipitation  
Precipitation 0.00 in 0.04 in 0.56 in (1931)
Month to date precipitation 0.31 0.60  
Year to date precipitation 12.54 10.26  
Sea Level Pressure  
Sea Level Pressure 30.39 in    
Wind  
Wind Speed 1 mph ()    
Max Wind Speed 10 mph    
Max Gust Speed 12 mph    
Visibility 9.0 miles    
Events      
T = Trace of Precipitation, MM = Missing Value Source: Averaged Metar Reports

Daily Weather History Graph

Daily Weather History Graph

Search for Another Location

Airport or City:

Astronomy

Oct. 22, 2019 Rise Set
Actual Time 7:22 AM PDT 6:10 PM PDT
Civil Twilight 6:53 AM PDT 6:38 PM PDT
Nautical Twilight 6:21 AM PDT 7:11 PM PDT
Astronomical Twilight 5:49 AM PDT 7:43 PM PDT
Moon 12:31 AM PDT (10/22) 3:29 PM PDT (10/22)
Length of Visible Light 11h 45m
Length of Day
10h 48m
Last Quarter, 36% of the Moon is Illuminated
Oct 22
Last Quarter
Oct 27
New
Nov 4
First Quarter
Nov 12
Full
Nov 19
Last Quarter

Hourly Weather History & Observations

Time (PDT) Temp. Windchill Dew Point Humidity Pressure Visibility Wind Dir Wind Speed Gust Speed Precip Events Conditions
1:55 AM 30.0 °F - 28.0 °F 92% 30.43 in 10.0 mi Calm Calm - N/A   Clear
2:55 AM 27.0 °F - 26.1 °F 96% 30.43 in 5.0 mi Calm Calm - N/A   Clear
3:55 AM 28.0 °F - 27.0 °F 96% 30.40 in 9.0 mi Calm Calm - N/A   Clear
4:30 AM 27.0 °F - 26.1 °F 96% 30.41 in 1.8 mi Calm Calm - N/A   Clear
4:45 AM 27.0 °F - 26.1 °F 96% 30.41 in 3.0 mi Calm Calm - N/A   Clear
4:55 AM 28.9 °F - 27.0 °F 92% 30.40 in 6.0 mi Calm Calm - N/A   Clear
5:55 AM 27.0 °F 23.0 °F 24.1 °F 89% 30.43 in 10.0 mi WNW 3.5 mph - N/A   Clear
6:55 AM 27.0 °F - 25.0 °F 92% 30.44 in 10.0 mi Calm Calm - N/A   Clear
7:55 AM 30.0 °F - 28.0 °F 92% 30.45 in 10.0 mi Calm Calm - N/A   Clear
8:55 AM 35.1 °F - 33.1 °F 92% 30.47 in 10.0 mi Calm Calm - N/A   Clear
9:55 AM 43.0 °F - 36.0 °F 76% 30.47 in 10.0 mi Calm Calm - N/A   Clear
10:55 AM 50.0 °F - 37.9 °F 63% 30.45 in 10.0 mi Calm Calm - N/A   Clear
11:55 AM 57.0 °F - 37.9 °F 49% 30.43 in 10.0 mi Calm Calm - N/A   Clear
12:55 PM 61.0 °F - 39.0 °F 44% 30.40 in 10.0 mi NNE 3.5 mph - N/A   Clear
1:55 PM 64.0 °F - 39.9 °F 41% 30.36 in 10.0 mi Calm Calm - N/A   Clear
2:55 PM 64.0 °F - 41.0 °F 43% 30.35 in 10.0 mi Calm Calm - N/A   Clear
3:55 PM 66.0 °F - 42.1 °F 42% 30.33 in 10.0 mi NNW 3.5 mph - N/A   Clear
4:55 PM 64.9 °F - 42.1 °F 43% 30.32 in 10.0 mi Calm Calm - N/A   Clear
5:55 PM 62.1 °F - 43.0 °F 50% 30.32 in 10.0 mi NW 8.1 mph - N/A   Partly Cloudy
6:55 PM 55.9 °F - 44.1 °F 64% 30.35 in 10.0 mi NNW 5.8 mph - N/A   Clear
7:55 PM 52.0 °F - 43.0 °F 71% 30.35 in 10.0 mi Calm Calm - N/A   Clear
8:55 PM 50.0 °F - 43.0 °F 77% 30.33 in 10.0 mi East 5.8 mph - N/A   Clear
9:55 PM 50.0 °F - 39.9 °F 68% 30.32 in 10.0 mi NE 4.6 mph - N/A   Scattered Clouds
10:55 PM 46.0 °F 44.8 °F 37.9 °F 73% 30.32 in 10.0 mi East 3.5 mph - N/A   Scattered Clouds
11:55 PM 44.1 °F - 37.9 °F 79% 30.30 in 10.0 mi Calm Calm - N/A   Clear